ECHO 1 DEB (METAL OBJ), 53

Orbit data source: Space-Track

ECHO 1 DEB (METAL OBJ), 53 is space debris in LEO originally from a launch on Fri, 12 Aug 1960 UTC launched from the Air Force Eastern Test Range (AFETR). Debris objects in space refer to the collection of defunct objects orbiting the Earth. Examples of debris include non-operational satellites, rocket bodies, and fragments generated from explosions, collisions, or faulty payload assembly.

Loading next visibility...
Identifier
53, 1960-009E
Orbit
LEO
Country
Flag of USUS
Related business
Manufacturer
Kaiser-Fleetwings
Mission
Spacecraft
Bus & Motor
ECHO CANISTER, Unknown motor
Mass
5 kg wet, 5 kg dry
Launch date (UTC)
1960-08-12 (65 years ago)
Launch vehicle
Unknown
Launch site
Air Force Eastern Test Range (AFETR)
Object type
Payload
Rocket body
Debris
Shape & HBR
Unknown
Radar Cross Section
0.590 m², Medium (>0.1 m² and < 1m²)

Expand to show TLE details & history
Last TLE update: 13 hours ago

TLE from 13 hours ago
0 ECHO 1 DEB (METAL OBJ)
1 00053U 60009E   25260.95250471 -.00000008  00000-0  75466-3 0  9991
2 00053  47.2758 102.0907 0099311 352.1479   7.7753 12.17388677902264
Epoch: 2025-09-17T22:51Z
TLE epoch observation values (Epoch: 2025-09-17T22:51:36.406Z)
Latitude
-0.00005°
Longitude
122.06789°
Altitude
1,525.631 km
Speed
7.139 km/s
True Right ascension
06h 48m 21s
True Declination
0° 00' 00"
Sunlit
Object was in daylight at epoch
Visualization orbit readout
Latitude
Unknown
Longitude
Unknown
Altitude
Unknown
Speed
Unknown
Apparent Right ascension
Unknown
Apparent Declination
Unknown
Sunlit
N/A
Visualization observer readout
Local Sidereal Time
04:16:41
Azimuth
Unknown
Elevation
Unknown
Doppler factor
Unknown
Orbital elements
Apogee altitude
1,684.273 km
Perigee altitude
1,525.71 km
Semi-major axis
7,983.129 km
Eccentricity
0.00993
Inclination
47.2758°
RAAN
102.0907°
Arg. of periapsis
352.1479°
True anomaly
7.93118°
Mean anomaly
7.7753°
Eccentric anomaly
7.85305°
Mean motion
3.04287 °/min
Orbital period
118.31 mins
BSTAR
0.00075466
Loading maneuver chart data...
Computing Atmospheric mass density...
Loading historical data...
Loading historical data...
Loading historical data...
Loading historical data...
Loading historical data...
Loading historical data...
Loading historical data...
Other satellites on launch #9 in the year 1960 (1960-08-12 UTC)

Documentation

Showing up to 5 results
|